Weather History for Stockholm Arlanda, Sweden

Change the Weather History Date:

Thursday, February 7, 2013

  Actual Average Record
Temperature  
Mean Temperature 32 °F -  
Max Temperature 35 °F 32 °F 44 °F (1997)
Min Temperature 30 °F 21 °F -7 °F (2003)
Degree Days  
Heating Degree Days 32    
Moisture  
Dew Point 32 °F    
Average Humidity 100    
Maximum Humidity 100    
Minimum Humidity 100    
Precipitation  
Precipitation 0.00 in - - ()
Sea Level Pressure  
Sea Level Pressure 29.72 in    
Wind  
Wind Speed 8 mph ()    
Max Wind Speed 12 mph    
Max Gust Speed -    
Visibility 4.9 miles    
Events Snow    
Averages and records for this station are not official NWS values.
T = Trace of Precipitation, MM = Missing Value Source: Averaged Metar Reports

Daily Weather History Graph

Daily Weather History Graph

Search for Another Location

Airport:

Trip Planner

Search our weather history database for the weather conditions in past years. The results will help you decide how hot, cold, wet, or windy it might be!

Date:

Astronomy

Feb. 07, 2013 Rise Set
Actual Time 7:45 AM CET 4:20 PM CET
Civil Twilight 7:00 AM CET 5:05 PM CET
Nautical Twilight 6:11 AM CET 5:54 PM CET
Astronomical Twilight 5:23 AM CET 6:42 PM CET
Moon 5:38 AM CET (2/7) 12:57 PM CET (2/7)
Length of Visible Light 10h 04m
Length of Day
8h 34m
Waning Crescent, 11% of the Moon is Illuminated
Feb 7
Waning Crescent
Feb 10
New
Feb 17
First Quarter
Feb 25
Full
Mar 4
Last Quarter

Hourly Weather History & Observations

Time (CET) Temp. Windchill Dew Point Humidity Pressure Visibility Wind Dir Wind Speed Gust Speed Precip Events Conditions
12:20 AM 30.2 °F 20.8 °F 30.2 °F 100% 29.50 in 0.9 mi NNE 11.5 mph - N/A Snow Snow
12:50 AM 30.2 °F 21.3 °F 30.2 °F 100% 29.50 in 3.1 mi NNE 10.4 mph - N/A Snow Light Snow
1:20 AM 30.2 °F 20.8 °F 30.2 °F 100% 29.53 in 4.3 mi NNE 11.5 mph - N/A Snow Light Snow
1:50 AM 30.2 °F 20.8 °F 30.2 °F 100% 29.53 in 6.2 mi NNE 11.5 mph - N/A   Mostly Cloudy
2:20 AM 30.2 °F 21.3 °F 30.2 °F 100% 29.53 in 6.2 mi North 10.4 mph - N/A   Mostly Cloudy
2:50 AM 30.2 °F 21.9 °F 30.2 °F 100% 29.56 in 6.2 mi North 9.2 mph - N/A   Overcast
3:20 AM 30.2 °F 21.3 °F 30.2 °F 100% 29.56 in 2.5 mi North 10.4 mph - N/A Snow Light Snow
3:50 AM 30.2 °F 21.9 °F 30.2 °F 100% 29.56 in 4.3 mi NNE 9.2 mph - N/A Snow Light Snow
4:20 AM 30.2 °F 21.9 °F 30.2 °F 100% 29.56 in 2.5 mi NNE 9.2 mph - N/A Snow Light Snow
4:50 AM 30.2 °F 22.6 °F 30.2 °F 100% 29.59 in - NNE 8.1 mph - N/A Snow Light Snow
5:20 AM 30.2 °F 22.6 °F 30.2 °F 100% 29.59 in 4.3 mi NNE 8.1 mph - N/A Snow Light Snow
5:50 AM 30.2 °F 22.6 °F 30.2 °F 100% 29.59 in 4.3 mi NNE 8.1 mph - N/A Snow Light Snow
6:20 AM 30.2 °F 22.6 °F 30.2 °F 100% 29.62 in 4.3 mi NNE 8.1 mph - N/A Snow Light Snow
6:50 AM 30.2 °F 23.4 °F 30.2 °F 100% 29.62 in 3.7 mi NNE 6.9 mph - N/A Snow Light Snow
7:20 AM 32.0 °F 25.6 °F 32.0 °F 100% 29.62 in 2.5 mi NNE 6.9 mph - N/A Snow Light Snow
7:50 AM 32.0 °F 25.6 °F 32.0 °F 100% 29.65 in 1.6 mi NNE 6.9 mph - N/A Snow Snow
8:20 AM 32.0 °F 25.6 °F 32.0 °F 100% 29.65 in 0.5 mi ENE 6.9 mph - N/A Snow Snow
8:50 AM 32.0 °F 24.8 °F 32.0 °F 100% 29.68 in 2.2 mi East 8.1 mph - N/A Snow Light Snow
9:20 AM 32.0 °F 24.8 °F 32.0 °F 100% 29.68 in 6.2 mi ENE 8.1 mph - N/A   Overcast
9:50 AM 32.0 °F 24.8 °F 32.0 °F 100% 29.68 in 3.1 mi ENE 8.1 mph - N/A Snow Light Snow
10:20 AM 33.8 °F 27.0 °F 33.8 °F 100% 29.71 in 0.9 mi ENE 8.1 mph - N/A Snow Snow
10:50 AM 33.8 °F 27.7 °F 33.8 °F 100% 29.71 in 0.9 mi ENE 6.9 mph - N/A Snow Snow
11:20 AM 33.8 °F 27.7 °F 33.8 °F 100% 29.71 in 3.7 mi ENE 6.9 mph - N/A Snow Light Snow
11:50 AM 33.8 °F 27.7 °F 33.8 °F 100% 29.74 in 6.2 mi NE 6.9 mph - N/A Snow Light Snow
12:20 PM 33.8 °F 27.0 °F 33.8 °F 100% 29.74 in 6.2 mi NE 8.1 mph - N/A   Mostly Cloudy
12:50 PM 33.8 °F 27.0 °F 33.8 °F 100% 29.74 in 6.2 mi NE 8.1 mph - N/A   Mostly Cloudy
1:20 PM 33.8 °F 26.4 °F 33.8 °F 100% 29.74 in 6.2 mi ENE 9.2 mph - N/A   Mostly Cloudy
1:50 PM 35.6 °F 29.2 °F 35.6 °F 100% 29.77 in 6.2 mi ENE 8.1 mph - N/A   Mostly Cloudy
2:20 PM 33.8 °F 26.4 °F 33.8 °F 100% 29.77 in 6.2 mi NE 9.2 mph - N/A   Mostly Cloudy
2:50 PM 33.8 °F 26.4 °F 33.8 °F 100% 29.77 in 6.2 mi NE 9.2 mph - N/A   Mostly Cloudy
3:20 PM 32.0 °F 24.2 °F 32.0 °F 100% 29.80 in 6.2 mi NNE 9.2 mph - N/A   Scattered Clouds
3:50 PM 32.0 °F 24.2 °F 32.0 °F 100% 29.80 in 6.2 mi NNE 9.2 mph - N/A   Mostly Cloudy
4:20 PM 32.0 °F 24.2 °F 32.0 °F 100% 29.80 in 6.2 mi NNE 9.2 mph - N/A   Mostly Cloudy
4:50 PM 32.0 °F 24.2 °F 32.0 °F 100% 29.83 in 5.0 mi NNE 9.2 mph - N/A Snow Light Snow
5:20 PM 32.0 °F 24.2 °F 32.0 °F 100% 29.83 in 6.2 mi NNE 9.2 mph - N/A Snow Light Snow
5:50 PM 32.0 °F 24.2 °F 32.0 °F 100% 29.83 in 6.2 mi NNE 9.2 mph - N/A Snow Light Snow
6:20 PM 32.0 °F 24.2 °F 32.0 °F 100% 29.83 in 6.2 mi NE 9.2 mph - N/A   Mostly Cloudy
6:50 PM 32.0 °F 24.2 °F 32.0 °F 100% 29.86 in 6.2 mi NNE 9.2 mph - N/A   Mostly Cloudy
7:20 PM 32.0 °F 24.8 °F 32.0 °F 100% 29.86 in 6.2 mi NNE 8.1 mph - N/A   Mostly Cloudy
7:50 PM 32.0 °F 24.8 °F 32.0 °F 100% 29.86 in 6.2 mi NE 8.1 mph - N/A   Mostly Cloudy
8:20 PM 32.0 °F 24.2 °F 32.0 °F 100% 29.86 in 6.2 mi NNE 9.2 mph - N/A   Mostly Cloudy
8:50 PM 32.0 °F 24.2 °F 32.0 °F 100% 29.89 in 6.2 mi ENE 9.2 mph - N/A   Mostly Cloudy
9:20 PM 32.0 °F 24.8 °F 32.0 °F 100% 29.89 in 6.2 mi NNE 8.1 mph - N/A   Mostly Cloudy
9:50 PM 32.0 °F 24.8 °F 32.0 °F 100% 29.89 in 6.2 mi NE 8.1 mph - N/A Snow Light Snow
10:20 PM 32.0 °F 24.8 °F 32.0 °F 100% 29.89 in 6.2 mi NE 8.1 mph - N/A Snow Light Snow
10:50 PM 32.0 °F 24.8 °F 32.0 °F 100% 29.89 in 6.2 mi NNE 8.1 mph - N/A Snow Light Snow
11:20 PM 32.0 °F 24.8 °F 32.0 °F 100% 29.92 in 6.2 mi NNE 8.1 mph - N/A Snow Light Snow Grains
11:50 PM 32.0 °F 24.8 °F 32.0 °F 100% 29.92 in 6.2 mi NNE 8.1 mph - N/A Snow Light Snow Grains